Weather Roundup
Issued by NWS Springfield, MO

Home | Current Version | Previous Version | Text Only | Print | Product List | Glossary On
Versions: 1 2 3 4 5 6 7 8 9 10 11 12 13 14 15 16 17 18 19 20 21 22 23 24 25 26 27 28 29 30 31 32 33 34 35 36 37 38 39 40 41 42 43 44 45 46 47 48 49 50
000
NZUS99 KSGF 261459
HRRSGF

HOURLY WEATHER
NATIONAL WEATHER SERVICE SPRINGFIELD MO
900 AM CST FRI DEC 26 2014

......SGF CWA......

CITY           SKY/WX    TMP DP  RH WIND       PRES   REMARKS
SPRINGFIELD    MOSUNNY   45  38  76 S18       30.02R
JOPLIN         PTSUNNY   51  43  74 S15       29.98R
WEST PLAINS    MOSUNNY   40  36  86 S7        30.12R
ROLLA          SUNNY     45  38  76 S17       30.03R
OSAGE BEACH    MOSUNNY   46  37  71 S9        30.03R
BRANSON        MOSUNNY   43  39  87 SE10      30.06R

......SURROUNDING SGF CWA......

CITY           SKY/WX    TMP DP  RH WIND       PRES   REMARKS
CHANUTE        CLOUDY    45  41  86 S12       29.93R
PARSONS        CLOUDY    47  43  86 S8        29.95R
COFFEYVILLE    PTSUNNY   48  43  82 S9        29.94S
EMPORIA        CLOUDY    35  30  82 NW8       29.91R WCI  29
SILOAM SPRINGS MOSUNNY   52  39  62 S14       30.02R
HARRISON AR    SUNNY     42  41  96 S9        30.07R
NEAR YELLVILLE MOSUNNY   46  37  71 S6        30.09R

......KANSAS AND MISSOURI......

CITY           SKY/WX    TMP DP  RH WIND       PRES   REMARKS
KANSAS CTY INT CLOUDY    45  36  70 S7        29.93R
DOWNTOWN KC    CLOUDY    48  38  68 SW8       29.93R
COLUMBIA       PTSUNNY   45  38  76 S13       30.02R
SEDALIA        PTSUNNY   46  37  71 S14       29.99R
ST JOSEPH      CLOUDY    34  31  88 NW8       29.95R WCI  27
ST LOUIS       PTSUNNY   46  37  71 S10       30.08R
SPIRIT OF STL  MOSUNNY   47  38  71 SW9       30.06R
KIRKSVILLE     CLOUDY    44  37  76 S8        29.97R
WICHITA        CLOUDY    34  29  82 N15       29.91R WCI  24
TOPEKA         CLOUDY    41  33  73 W5        29.93R
OLATHE         CLOUDY    45  39  79 S8        29.92R

......TENNESSEE......

CITY           SKY/WX    TMP DP  RH WIND       PRES   REMARKS
MEMPHIS        CLOUDY    45  36  70 SE6       30.24R
NASHVILLE      PTSUNNY   41  37  86 S9        30.32R

......ARKANSAS.......

CITY           SKY/WX    TMP DP  RH WIND       PRES   REMARKS
FAYETTEVILLE   SUNNY     50  44  80 S8        30.02F
FT SMITH       PTSUNNY   45  40  82 E8        30.06R
LITTLE ROCK    CLOUDY    45  37  73 E7        30.17S

......OKLAHOMA.......

CITY           SKY/WX    TMP DP  RH WIND       PRES   REMARKS
TULSA          CLOUDY    50  44  80 S14       29.94S
PONCA CITY     PTSUNNY   47  41  80 S6        29.90R
MCALESTER      CLOUDY    54  46  74 S8        30.00R
OKLAHOMA CITY  PTSUNNY   49  43  80 S10       29.90R

......IOWA............

CITY           SKY/WX    TMP DP  RH WIND       PRES   REMARKS
DES MOINES     PTSUNNY   33  29  85 NW12      29.93R WCI  24
QUAD CITIES    PTSUNNY   42  34  73 SW9       29.97R

......ILLINOIS........

CITY           SKY/WX    TMP DP  RH WIND       PRES   REMARKS
QUINCY         CLOUDY    43  36  76 S13       30.01R
CHICAGO        PTSUNNY   40  34  79 SW13G18   30.02R WCI  32




USA.gov is the U.S. government's official web portal to all federal, state and local government web resources and services.